This is the latest recevied weather packets stored in our database for station/object SP7QPD-1. If no packets are shown the sender has not sent any weather packets the latest 10 day(s).
| Time | Temp. | Humidity | Pressure | Rain* | Wind** | Luminosity | Snow |
|---|---|---|---|---|---|---|---|
| 1777520425 | -2.22° C | 73% | 1030 hPa | 0 mm | - | - | - |
| 1777519825 | -2.78° C | 73% | 1030 hPa | 0 mm | - | - | - |
| 1777519266 | -2.78° C | 73% | 1029.7 hPa | 0 mm | - | - | - |
| 1777518625 | -2.22° C | 73% | 1029.7 hPa | 0 mm | - | - | - |
| 1777518025 | -2.22° C | 73% | 1029.7 hPa | 0 mm | - | - | - |
| 1777517466 | -2.22° C | 73% | 1029.8 hPa | 0 mm | - | - | - |
| 1777516824 | -2.22° C | 73% | 1030.1 hPa | 0 mm | - | - | - |
| 1777516224 | -2.22° C | 73% | 1030 hPa | 0 mm | - | - | - |
| 1777515665 | -2.22° C | 73% | 1029.7 hPa | 0 mm | - | - | - |
| 1777515024 | -2.22° C | 73% | 1029.8 hPa | 0 mm | - | - | - |
| 1777514424 | -2.22° C | 73% | 1029.8 hPa | 0 mm | - | - | - |
| 1777513865 | -2.22° C | 73% | 1029.8 hPa | 0 mm | - | - | - |
| 1777513224 | -2.22° C | 72% | 1029.7 hPa | 0 mm | - | - | - |
| 1777512624 | -2.22° C | 72% | 1029.6 hPa | 0 mm | - | - | - |
| 1777512064 | -2.22° C | 72% | 1029.5 hPa | 0 mm | - | - | - |
| 1777511424 | -1.67° C | 72% | 1029.6 hPa | 0 mm | - | - | - |
| 1777510824 | -1.67° C | 72% | 1029.6 hPa | 0 mm | - | - | - |
| 1777509023 | -1.67° C | 72% | 1029.5 hPa | 0 mm | - | - | - |
| 1777508464 | -1.67° C | 71% | 1029.6 hPa | 0 mm | - | - | - |
| 1777498222 | 0° C | 65% | 1029.2 hPa | 0 mm | - | - | - |
| 1777497022 | 0.56° C | 64% | 1029.2 hPa | 0 mm | - | - | - |
| 1777496422 | 0.56° C | 63% | 1029.1 hPa | 0 mm | - | - | - |
| 1777494061 | 1.67° C | 61% | 1028.8 hPa | 0 mm | - | - | - |
| 1777491021 | 2.78° C | 58% | 1028.6 hPa | 0 mm | - | - | - |
| 1777490460 | 3.33° C | 57% | 1028.6 hPa | 0 mm | - | - | - |
* Rain latest hour (hover to see other rain measurements)
** Current wind speed in m/s (hover to see current wind gust speed)